Wind_Speed
17 17 17 17 17 17 17 17 16 15 15 15 16 16 17 18 20 21 22 23 24 26 27 28 29 30 31 32 33 34 35 36 37 37 37 38 38 38 38 37 37 37 37
21 22 22 21 21 21 21 21 20 20 20 20 20 20 21 22 22 24 25 26 27 28 29 30 32 33 35 36 37 38 38 39 40 40 41 41 41 41 41 42 42 42 42
26 26 26 26 26 26 25 25 24 24 24 24 24 24 25 24 24 25 26 28 29 30 32 33 34 36 37 39 40 41 42 42 43 43 44 44 45 45 45 44 44 45 45
31 32 32 31 31 31 30 30 29 29 28 28 27 27 27 27 26 26 28 30 31 33 34 35 37 38 39 41 42 43 44 45 46 46 47 48 48 49 49 49 48 48 48
36 36 36 37 37 36 36 35 34 33 32 31 30 29 29 29 28 28 30 32 33 35 37 37 39 40 42 43 45 46 47 48 49 50 51 52 52 53 53 53 53 52 52
39 39 38 38 39 39 39 38 36 35 34 33 32 32 31 30 29 31 32 34 35 37 39 40 42 43 44 46 47 49 50 52 53 54 55 56 56 57 57 57 57 56 55
36 36 36 37 38 39 38 38 38 37 35 33 32 32 31 31 31 33 34 36 37 39 41 43 45 46 48 49 51 53 54 56 57 58 59 60 60 61 61 61 60 60 59
33 34 34 33 34 35 36 36 35 34 33 32 31 31 32 32 32 35 37 39 41 43 45 47 49 51 52 54 56 58 60 61 62 63 64 64 65 65 65 65 64 63 63
32 31 31 30 29 31 33 32 32 32 31 30 31 32 35 37 39 39 41 44 46 48 51 52 54 56 58 60 62 63 63 65 66 67 68 68 69 69 68 68 67 66 66
32 30 28 27 25 27 28 29 29 29 30 32 33 36 38 41 44 46 46 48 51 54 56 58 60 62 64 65 66 66 66 66 68 69 70 70 70 71 71 71 71 70 69
32 29 28 27 26 27 27 28 30 32 34 35 37 40 42 45 47 49 53 56 58 59 61 62 64 66 67 67 68 68 67 68 69 70 71 71 71 71 72 72 72 72 71
34 32 30 29 29 29 31 33 35 37 38 40 42 45 47 49 51 54 57 59 61 63 64 65 66 67 68 69 70 69 69 69 70 71 71 71 71 72 72 72 72 72 72
34 33 32 32 33 34 35 37 38 40 43 45 47 49 51 54 56 59 61 62 63 64 65 67 67 67 68 69 69 69 68 68 68 69 69 70 70 70 71 71 71 71 71
36 35 35 35 36 38 39 41 43 45 48 50 51 53 56 57 59 61 63 64 64 64 65 65 66 67 67 68 69 68 68 68 68 68 69 69 70 70 71 71 71 71 71
39 39 39 40 41 42 44 46 48 50 51 53 55 57 59 60 61 62 63 64 64 63 62 64 65 66 66 68 68 68 68 68 67 67 66 67 67 67 67 67 67 67 67
43 44 44 45 46 46 48 49 51 53 54 56 58 59 60 61 62 62 62 62 62 62 61 63 64 65 66 67 68 68 66 65 63 61 60 58 57 56 56 56 57 57 58
47 47 48 48 48 49 50 52 53 54 56 57 58 59 60 60 61 61 61 61 62 62 62 62 64 65 65 65 64 62 60 57 54 51 49 48 47 45 45 45 46 48 49
50 49 49 50 50 51 52 53 54 55 57 57 58 58 58 59 58 59 59 60 61 62 62 62 62 61 60 58 54 51 48 45 42 40 39 39 38 38 37 37 38 39 40
51 50 50 51 51 52 53 54 55 56 56 56 56 56 56 56 57 57 58 59 60 61 60 59 56 53 50 47 43 40 38 36 34 34 32 32 32 32 32 32 32 32 32
52 52 52 52 52 53 53 54 54 54 55 55 54 54 54 54 55 57 57 58 58 57 54 51 46 42 40 38 35 33 32 31 31 30 29 28 28 29 29 29 29 29 29
54 53 53 53 53 53 53 53 53 53 53 53 52 52 53 54 55 55 55 54 53 49 44 40 36 34 33 31 31 30 30 29 30 29 28 27 27 27 27 28 28 27 27
53 53 53 53 53 53 52 52 52 52 51 51 51 52 52 52 52 52 50 48 44 39 34 31 30 29 29 29 29 29 30 29 29 28 28 27 27 26 26 25 25 25 25
52 52 52 52 52 52 52 51 51 50 50 49 49 50 50 49 48 45 42 39 34 30 27 26 26 27 27 27 28 28 28 28 27 26 25 25 26 25 24 23 23 22 22
51 51 51 51 51 50 50 50 49 48 48 48 47 46 44 42 39 36 33 29 27 25 25 25 26 26 27 27 26 26 24 23 22 21 21 21 22 22 22 21 21 21 21
49 49 49 49 49 48 48 47 47 47 45 44 42 40 37 33 30 26 23 22 21 22 23 24 25 25 25 24 23 22 20 19 19 19 19 19 18 18 17 17 17 17 18
47 47 47 47 47 46 45 45 44 42 40 38 36 33 28 24 21 18 17 17 19 20 22 23 23 23 22 21 20 18 17 17 18 18 18 17 16 15 14 14 13 14 14
Wind_Direction
296 290 285 280 275 273 270 267 266 267 268 270 274 279 280 282 284 285 286 286 285 284 283 282 282 282 282 281 280 280 279 279 277 276 275 273 272 271 269 268 266 264 262
291 286 280 277 272 269 268 267 264 264 265 267 269 274 277 278 280 282 283 284 284 283 282 281 281 281 281 280 280 279 278 277 276 275 274 272 271 270 269 267 265 263 262
286 279 274 271 269 266 265 265 264 264 265 266 268 270 273 276 278 279 282 283 283 282 282 281 281 280 280 279 278 277 276 276 275 274 273 272 271 269 268 266 265 263 262
282 275 269 265 264 263 263 262 262 263 264 265 267 270 273 276 277 279 281 282 283 282 282 281 280 280 279 278 277 277 276 275 274 273 272 271 270 269 269 267 266 264 263
283 277 273 267 264 263 262 260 260 261 262 264 267 271 274 275 277 280 281 282 282 283 283 282 282 281 280 279 278 277 276 275 274 273 272 271 270 270 269 268 267 265 263
287 282 277 271 266 264 263 262 261 262 264 265 267 270 274 277 280 283 282 283 284 284 284 284 282 282 281 280 279 278 277 276 274 273 273 272 271 270 269 268 267 266 264
291 285 280 276 271 266 264 263 263 263 264 266 271 275 280 282 284 285 286 288 288 287 286 285 284 283 282 281 280 279 278 276 275 274 273 272 271 270 269 268 267 265 264
298 292 285 281 277 270 267 264 265 266 268 272 279 285 287 288 290 291 292 291 291 289 288 287 286 285 284 283 281 280 279 277 276 275 274 273 271 270 269 268 266 265 263
306 298 291 286 280 275 272 271 270 273 278 281 287 291 293 294 295 294 293 292 292 291 290 289 288 286 285 284 283 281 280 278 277 275 274 273 272 271 269 268 266 264 262
318 307 297 291 286 285 279 281 285 286 289 292 294 295 295 296 296 296 294 293 292 292 292 291 290 288 287 286 285 283 281 279 277 276 275 273 272 271 269 268 266 264 262
318 313 307 300 294 294 291 295 293 294 297 296 294 293 293 293 294 294 294 295 294 293 293 292 291 290 288 286 285 284 282 280 278 277 275 274 273 272 270 269 267 266 264
312 311 306 302 298 298 297 296 295 296 295 294 294 293 293 293 293 293 292 292 293 293 293 292 291 290 289 287 285 284 283 281 279 277 276 275 274 273 272 270 269 267 265
307 305 303 301 298 296 296 294 292 293 293 293 293 293 292 292 292 292 292 292 293 292 292 292 291 290 289 288 286 285 284 282 281 279 278 277 276 274 273 271 269 268 266
304 303 300 298 295 293 294 293 291 292 292 291 291 291 291 291 291 291 292 292 293 293 293 292 292 291 289 288 288 287 286 284 283 282 280 279 277 276 274 272 270 269 267
303 301 299 297 295 293 292 291 290 290 290 289 290 290 291 291 292 293 293 294 294 294 293 293 292 291 291 290 290 289 288 287 285 284 282 281 279 276 274 272 270 268 266
301 300 298 297 295 293 291 290 290 290 289 289 290 291 291 292 293 294 294 294 294 295 294 294 293 293 292 292 291 291 290 288 287 285 283 281 279 277 274 272 270 268 266
300 298 297 296 293 292 291 290 289 289 289 290 291 291 292 293 294 295 296 295 296 296 296 295 295 294 294 293 293 292 291 290 288 286 284 282 280 278 276 274 272 270 267
298 296 295 293 292 291 290 289 289 290 290 291 292 293 294 295 295 296 296 297 297 298 298 297 297 297 297 296 296 294 293 291 290 288 285 283 281 279 277 275 274 272 269
296 294 294 292 291 290 289 289 290 290 291 292 293 294 295 296 296 297 298 299 299 300 300 301 300 299 299 299 299 298 297 295 293 292 289 286 283 280 278 276 275 273 270
294 293 292 291 290 290 290 290 290 291 292 293 294 295 296 297 298 299 300 301 302 302 303 303 303 301 301 301 301 300 299 297 296 295 293 289 286 283 280 278 275 273 270
292 291 291 290 290 291 291 291 292 293 294 295 296 297 298 299 301 302 303 303 304 304 305 305 304 304 304 303 302 301 300 299 298 296 294 291 287 283 280 278 275 273 271
290 290 290 290 290 291 292 292 293 294 295 296 298 299 300 302 303 305 305 305 305 306 306 307 307 306 305 304 303 302 301 299 298 296 294 292 289 286 282 278 275 273 271
289 290 290 290 291 292 293 294 295 296 296 298 300 302 303 304 306 306 306 306 308 310 311 311 310 309 309 307 306 305 305 303 301 299 296 294 291 289 285 280 274 272 270
289 290 290 291 292 293 294 294 295 296 298 299 301 302 304 306 307 306 307 309 311 314 315 316 316 315 314 313 313 313 312 311 310 308 307 305 298 293 288 282 277 271 269
290 291 291 292 293 294 295 295 296 297 299 300 302 303 305 306 306 307 308 311 314 317 319 320 320 320 321 321 321 321 320 320 321 319 317 315 309 302 295 286 280 274 269
291 292 292 293 294 294 295 296 297 298 299 300 302 303 305 306 307 308 312 317 320 322 324 325 327 329 330 332 333 332 331 330 328 327 325 322 319 313 306 296 286 278 272
Height
5874 5873 5872 5871 5870 5869 5869 5869 5868 5867 5866 5866 5865 5864 5863 5863 5861 5860 5860 5859 5858 5857 5856 5854 5853 5852 5851 5851 5850 5849 5848 5848 5847 5846 5846 5846 5845 5845 5845 5845 5846 5847 5847
5870 5869 5867 5866 5865 5864 5864 5864 5863 5862 5862 5861 5860 5859 5858 5857 5856 5854 5853 5852 5851 5850 5849 5848 5846 5845 5844 5843 5842 5840 5839 5838 5838 5837 5836 5836 5835 5835 5835 5835 5836 5836 5837
5865 5863 5862 5860 5859 5858 5858 5857 5857 5856 5855 5855 5854 5853 5852 5851 5850 5848 5847 5845 5844 5843 5841 5840 5838 5837 5836 5834 5833 5832 5830 5829 5828 5827 5826 5825 5825 5824 5824 5824 5824 5825 5825
5858 5856 5854 5853 5852 5851 5850 5850 5849 5849 5848 5847 5847 5846 5845 5844 5843 5841 5839 5838 5836 5834 5833 5832 5830 5828 5827 5825 5823 5822 5820 5819 5818 5817 5815 5814 5813 5812 5812 5812 5812 5812 5813
5851 5848 5846 5844 5843 5842 5842 5841 5841 5840 5840 5840 5839 5838 5837 5836 5835 5834 5832 5830 5828 5826 5824 5823 5821 5819 5817 5815 5813 5811 5809 5808 5806 5805 5803 5802 5800 5800 5799 5799 5799 5799 5799
5843 5840 5838 5836 5834 5833 5833 5833 5832 5832 5831 5831 5830 5830 5829 5828 5827 5826 5824 5822 5820 5817 5815 5813 5810 5809 5806 5804 5801 5799 5797 5795 5793 5791 5790 5788 5786 5785 5784 5784 5784 5784 5784
5835 5832 5829 5827 5825 5825 5824 5824 5824 5824 5824 5823 5822 5822 5821 5819 5818 5816 5814 5812 5810 5807 5804 5802 5799 5796 5794 5791 5788 5786 5783 5780 5778 5776 5774 5772 5771 5770 5768 5768 5767 5768 5768
5827 5824 5822 5820 5818 5817 5817 5817 5816 5816 5815 5815 5814 5813 5812 5811 5809 5806 5804 5801 5799 5796 5792 5789 5786 5783 5780 5776 5773 5771 5767 5764 5761 5759 5756 5754 5753 5752 5751 5750 5750 5750 5751
5821 5817 5815 5813 5811 5811 5810 5810 5809 5809 5808 5807 5805 5804 5802 5800 5798 5796 5793 5790 5787 5783 5779 5776 5772 5768 5764 5760 5756 5753 5750 5746 5743 5740 5737 5735 5733 5732 5731 5730 5730 5730 5731
5816 5813 5811 5809 5807 5805 5804 5804 5802 5801 5800 5799 5797 5794 5792 5789 5786 5782 5780 5777 5773 5769 5764 5760 5755 5751 5747 5742 5737 5733 5730 5727 5723 5719 5716 5714 5712 5711 5709 5709 5709 5709 5711
5813 5810 5808 5805 5802 5800 5799 5797 5796 5794 5792 5790 5788 5785 5782 5778 5774 5770 5766 5762 5757 5752 5747 5742 5737 5732 5727 5722 5717 5713 5711 5706 5702 5698 5695 5692 5690 5689 5687 5687 5686 5687 5689
5807 5804 5802 5799 5797 5795 5793 5791 5788 5786 5783 5780 5777 5774 5770 5766 5762 5757 5752 5747 5742 5736 5730 5724 5718 5712 5706 5701 5696 5692 5689 5685 5681 5677 5674 5671 5669 5667 5665 5664 5664 5664 5666
5800 5797 5795 5792 5790 5787 5784 5782 5779 5776 5773 5769 5765 5761 5757 5753 5748 5743 5737 5732 5726 5721 5713 5706 5699 5693 5686 5680 5675 5671 5668 5664 5660 5656 5652 5649 5647 5644 5643 5641 5641 5641 5642
5792 5789 5786 5784 5781 5778 5775 5772 5768 5765 5761 5757 5752 5748 5743 5738 5733 5727 5721 5715 5710 5704 5697 5689 5681 5674 5667 5660 5654 5650 5646 5642 5638 5634 5630 5626 5623 5621 5619 5618 5617 5617 5618
5782 5779 5777 5774 5771 5768 5764 5761 5757 5752 5748 5743 5738 5733 5728 5722 5717 5711 5704 5698 5692 5687 5681 5672 5664 5656 5649 5642 5635 5629 5624 5620 5616 5611 5607 5603 5600 5597 5595 5593 5592 5592 5593
5771 5768 5765 5762 5758 5755 5751 5747 5743 5738 5733 5728 5723 5718 5712 5706 5701 5694 5688 5681 5674 5668 5664 5656 5647 5639 5631 5624 5616 5609 5603 5598 5593 5589 5585 5581 5578 5576 5573 5571 5570 5571 5571
5759 5756 5752 5749 5745 5741 5737 5733 5728 5724 5719 5714 5708 5703 5697 5691 5685 5678 5672 5665 5658 5651 5646 5639 5629 5621 5613 5606 5598 5591 5584 5579 5574 5570 5566 5563 5561 5558 5556 5555 5553 5553 5553
5746 5743 5739 5735 5731 5727 5723 5719 5714 5709 5704 5699 5693 5688 5682 5676 5670 5664 5657 5650 5643 5635 5628 5622 5613 5603 5595 5588 5581 5574 5568 5563 5559 5555 5552 5549 5547 5545 5543 5541 5540 5539 5538
5733 5729 5725 5721 5717 5713 5708 5704 5699 5695 5690 5684 5679 5673 5667 5662 5656 5649 5642 5635 5627 5619 5611 5604 5596 5588 5580 5573 5568 5562 5557 5552 5548 5545 5541 5538 5536 5534 5532 5530 5529 5528 5527
5720 5715 5711 5707 5702 5698 5694 5689 5685 5680 5675 5670 5665 5659 5654 5648 5642 5635 5627 5620 5612 5604 5596 5589 5582 5575 5569 5563 5558 5553 5549 5544 5540 5536 5533 5530 5527 5525 5523 5521 5520 5519 5517
5705 5701 5697 5692 5688 5684 5679 5675 5670 5666 5661 5656 5651 5646 5641 5635 5628 5620 5613 5606 5598 5591 5584 5578 5572 5566 5561 5555 5550 5545 5541 5537 5532 5528 5525 5522 5519 5516 5514 5512 5511 5509 5508
5691 5687 5682 5678 5674 5670 5665 5661 5657 5653 5648 5643 5638 5632 5627 5621 5614 5607 5600 5593 5587 5581 5575 5570 5565 5559 5554 5549 5544 5538 5533 5529 5525 5521 5517 5514 5510 5508 5506 5504 5502 5501 5500
5677 5673 5668 5664 5660 5656 5652 5648 5643 5640 5635 5631 5625 5620 5614 5608 5602 5596 5589 5583 5578 5573 5568 5563 5558 5553 5548 5543 5537 5532 5526 5521 5517 5513 5509 5506 5502 5499 5497 5495 5494 5493 5492
5663 5659 5655 5651 5647 5643 5639 5635 5631 5627 5623 5619 5614 5609 5603 5597 5592 5587 5581 5576 5571 5567 5562 5558 5553 5547 5542 5536 5531 5525 5520 5515 5511 5507 5502 5499 5495 5492 5489 5487 5486 5485 5485
5650 5646 5642 5638 5634 5631 5627 5623 5619 5615 5611 5607 5603 5599 5594 5589 5585 5580 5576 5571 5567 5563 5558 5553 5548 5542 5537 5531 5526 5520 5516 5511 5507 5502 5498 5493 5489 5486 5483 5481 5479 5478 5478
5637 5633 5629 5625 5622 5618 5615 5611 5607 5603 5600 5597 5593 5590 5586 5583 5579 5575 5572 5568 5565 5560 5555 5550 5544 5539 5533 5528 5522 5517 5512 5508 5503 5499 5494 5490 5486 5482 5479 5477 5475 5473 5472